{"data":{"norad_id":56178,"epoch":"2026-09-21T22:42:29.876832Z","epoch_age_seconds":61807,"freshness":"FRESH","line1":"1 56178U 23054A   26264.94617913  .00000125  00000+0  31640-4 0  9996","line2":"2 56178  98.1110 168.6368 0008626 219.5312 140.5263 14.65899147184583","mean_motion":14.65899147,"eccentricity":0.0008626,"inclination_deg":98.111,"raan_deg":168.6368,"arg_perigee_deg":219.5312,"mean_anomaly_deg":140.5263,"bstar":3.164e-5,"rev_number":18458,"period_min":98.233224498902,"perigee_km":668.10674794056,"apogee_km":680.27342262809,"semimajor_km":7052.3270852843,"source":"CELESTRAK","updated_at":"2026-09-22T09:00:25.733664Z"}}